Weather History for KVGT - August, 2014

Change the Weather History Date:

Saturday, August 23, 2014

  Actual Average Record
Temperature  
Mean Temperature 83 °F -  
Max Temperature 95 °F 101 °F 110 °F (1952)
Min Temperature 73 °F 73 °F 51 °F (1960)
Cooling Degree Days 18    
Growing Degree Days 33 (Base 50)    
Moisture  
Dew Point 42 °F    
Average Humidity 23    
Maximum Humidity 41    
Minimum Humidity 13    
Precipitation  
Precipitation 0.00 in - - ()
Sea Level Pressure  
Sea Level Pressure 29.82 in    
Wind  
Wind Speed 7 mph (SSE)    
Max Wind Speed 14 mph    
Max Gust Speed 16 mph    
Visibility 10 miles    
Events      
Averages and records for this station are not official NWS values.
T = Trace of Precipitation, MM = Missing Value Source: NWS Daily Summary

Daily Weather History Graph

Daily Weather History Graph

Search for Another Location

Airport or City:

Trip Planner

Search our weather history database for the weather conditions in past years. The results will help you decide how hot, cold, wet, or windy it might be!

Date:

Astronomy

Aug. 23, 2014 Rise Set
Actual Time 6:05 AM PDT 7:20 PM PDT
Civil Twilight 5:38 AM PDT 7:47 PM PDT
Nautical Twilight 5:06 AM PDT 8:19 PM PDT
Astronomical Twilight 4:33 AM PDT 8:52 PM PDT
Moon 4:26 AM PDT (8/23) 6:07 PM PDT (8/23)
Length of Visible Light 14h 08m
Length of Day
13h 15m
Waning Crescent, 3% of the Moon is Illuminated
Aug 23
Waning Crescent
Aug 25
New
Sep 2
First Quarter
Sep 8
Full
Sep 15
Last Quarter

Hourly Weather History & Observations

Time (PDT) Temp. Dew Point Humidity Pressure Visibility Wind Dir Wind Speed Gust Speed Precip Events Conditions
12:53 AM 84.0 °F 48.0 °F 28% 29.78 in 10.0 mi SSW 13.8 mph - N/A   Clear
2:53 AM 81.0 °F 46.0 °F 29% 29.79 in 10.0 mi South 13.8 mph - N/A   Clear
4:53 AM 78.8 °F 48.2 °F 34% 29.84 in 10.0 mi West 3.5 mph - N/A   Clear
5:53 AM 75.0 °F 48.0 °F 38% 29.83 in 10.0 mi Calm Calm - N/A   Clear
6:53 AM 73.9 °F 48.9 °F 41% 29.86 in 10.0 mi Calm Calm - N/A   Clear
7:53 AM 79.0 °F 46.9 °F 32% 29.87 in 10.0 mi ENE 5.8 mph - N/A   Clear
8:53 AM 80.1 °F 48.0 °F 32% 29.88 in 10.0 mi SE 4.6 mph - N/A   Clear
9:53 AM 82.0 °F 46.9 °F 29% 29.89 in 10.0 mi Calm Calm - N/A   Clear
10:53 AM 84.9 °F 46.0 °F 26% 29.89 in 10.0 mi Calm Calm - N/A   Clear
11:53 AM 88.0 °F 45.0 °F 22% 29.88 in 10.0 mi SSW 6.9 mph - N/A   Clear
12:53 PM 90.0 °F 45.0 °F 21% 29.86 in 10.0 mi East 6.9 mph - N/A   Clear
1:53 PM 91.0 °F 44.1 °F 20% 29.83 in 10.0 mi SE 3.5 mph - N/A   Clear
2:53 PM 91.9 °F 42.1 °F 18% 29.81 in 10.0 mi SE 9.2 mph - N/A   Clear
3:53 PM 93.0 °F 39.9 °F 16% 29.79 in 10.0 mi SSE 10.4 mph - N/A   Clear
4:53 PM 93.9 °F 37.9 °F 14% 29.77 in 10.0 mi ESE 5.8 mph 16.1 mph N/A   Clear
5:53 PM 93.9 °F 36.0 °F 13% 29.76 in 10.0 mi WSW 8.1 mph - N/A   Clear
6:53 PM 93.0 °F 36.0 °F 13% 29.76 in 10.0 mi SSW 5.8 mph - N/A   Clear
7:53 PM 91.0 °F 36.0 °F 14% 29.77 in 10.0 mi South 6.9 mph - N/A   Clear
8:53 PM 89.1 °F 36.0 °F 15% 29.79 in 10.0 mi South 6.9 mph - N/A   Clear
9:53 PM 86.0 °F 36.0 °F 17% 29.80 in 10.0 mi SSE 5.8 mph - N/A   Clear
10:53 PM 84.9 °F 35.1 °F 17% 29.80 in 10.0 mi South 6.9 mph - N/A   Clear
11:53 PM 82.9 °F 36.0 °F 19% 29.81 in 10.0 mi Calm Calm - N/A   Clear